Location: ??????
(36.0418°N, 43.6351°E)
Time: 22:52:01
(UTC+00:00)

Cosmos 2322 - Pass Details

Date: 07 March 2021
Orbit: 842 x 853 km, 71.0° (Epoch: 19 April)

Event Time Altitude Azimuth Distance (km) Brightness Sun altitude
Rises 02:17:32 0° 335° (NNW) 3,415 6.6 -15.0°
Reaches altitude 10° 02:20:01 10° 332° (NNW) 2,474 5.9 -14.5°
Maximum altitude 02:25:37 65° 252° (WSW) 926 3.7 -13.4°
Drops below altitude 10° 02:31:11 10° 171° (S) 2,453 6.2 -12.2°
Sets 02:33:38 0° 169° (SSE) 3,383 7.0 -11.7°
